Regional Weather Roundup
Issued by NWS

Home | Current Version | Previous Version | Text Only | Print | Product List | Glossary On
Versions: 1 2 3 4 5 6 7 8 9 10 11 12 13 14 15 16 17 18 19 20 21 22 23 24 25 26 27 28 29 30 31 32 33 34 35 36 37 38 39 40 41 42 43 44 45 46 47 48 49 50
000
ASUS43 KTOP 251808
RWRKS

WEATHER ROUNDUP FOR KANSAS
NATIONAL WEATHER SERVICE GOODLAND KS
1200 PM CST SUN JAN 25 2015

NOTE:  "FAIR" INDICATES FEW OR NO CLOUDS BELOW 12,000 FEET WITH NO
SIGNIFICANT WEATHER AND/OR OBSTRUCTIONS TO VISIBILITY.

KSZ001>006-013>018-027>032-041>047-251900-
NORTHWEST KANSAS

CITY           SKY/WX    TMP DP  RH WIND       PRES   REMARKS
GOODLAND       SUNNY     50  26  39 NW23G38   30.12S
6HR MIN TEMP:  35; 6HR MAX TEMP:  51;

HAYS           MOSUNNY   48  25  40 N23G38    30.08R
HILL CITY      SUNNY     49  25  39 N26G33    30.10R
6HR MIN TEMP:  38; 6HR MAX TEMP:  49;

RUSSELL        CLOUDY    46  28  49 N29G37    30.06R
6HR MIN TEMP:  38; 6HR MAX TEMP:  47;

$$

KSZ061>065-074>080-084>089-251900-
SOUTHWEST KANSAS

CITY           SKY/WX    TMP DP  RH WIND       PRES   REMARKS
DODGE CITY     SUNNY     50  22  33 N23G37    30.12R
6HR MIN TEMP:  38; 6HR MAX TEMP:  50;

ELKHART          N/A    N/A N/A N/A MISG        N/A
GARDEN CITY    SUNNY     51  24  34 N23G32    30.13S
6HR MIN TEMP:  34; 6HR MAX TEMP:  51;

GREAT BEND     MOSUNNY   48  27  43 N31G41    30.07R
LIBERAL        SUNNY     52  28  40 NW23      30.18S
PRATT          SUNNY     50  27  40 N32G39    30.07S
$$

KSZ066>073-081>083-090>101-251900-
SOUTHEAST KANSAS

CITY           SKY/WX    TMP DP  RH WIND       PRES   REMARKS
CHANUTE        CLOUDY    43  32  65 N22G38    29.89R
6HR MIN TEMP:  43; 6HR MAX TEMP:  47;

COFFEYVILLE    CLOUDY    49  32  52 NW26G40   29.89R
6HR MIN TEMP:  47; 6HR MAX TEMP:  50;

HUTCHINSON     CLOUDY    51  28  41 NW28G39   30.00R
6HR MIN TEMP:  44; 6HR MAX TEMP:  51;

MEDICINE LODGE   N/A     52  26  36 N33G44    30.02F
NEWTON         CLOUDY    45  28  53 N29G36    29.98R
PARSONS        CLOUDY    46  33  60 N21G26    29.89R
6HR MIN TEMP:  46; 6HR MAX TEMP:  48;

WICHITA INTL   PTSUNNY   51  29  42 NW32G44   29.98R
6HR MIN TEMP:  46; 6HR MAX TEMP:  51;

WICHITA JABRA  CLOUDY    48  30  49 NW33G44   29.97R
6HR MIN TEMP:  45; 6HR MAX TEMP:  49;

WICHITA MCCONL PTSUNNY   49  31  49 N29G39    29.96R
WINFIELD       CLOUDY    50  30  46 NW29G36   29.97R
6HR MIN TEMP:  46; 6HR MAX TEMP:  51;

$$

KSZ007>012-019>026-033>040-048>060-102>105-251900-
NORTHEAST KANSAS

CITY           SKY/WX    TMP DP  RH WIND       PRES   REMARKS
CONCORDIA      CLOUDY    43  33  68 N22G33    30.00R
6HR MIN TEMP:  41; 6HR MAX TEMP:  43;

EMPORIA        PTSUNNY   44  31  60 NW31G38   29.90R
6HR MIN TEMP:  41; 6HR MAX TEMP:  45; 6HR PCP: TRACE;

LAWRENCE       CLOUDY    38  33  82 N23G32    29.87R WCI  27
6HR MIN TEMP:  37; 6HR MAX TEMP:  43; 6HR PCP:  0.01;

MANHATTAN      CLOUDY    44  31  60 N16G29    29.97R
6HR MIN TEMP:  41; 6HR MAX TEMP:  46;

MARYSVILLE     CLOUDY    39  32  75 N24       29.96R WCI  28
OLATHE IND     CLOUDY    37  34  89 NW26G36   29.84R WCI  25
6HR MIN TEMP:  36; 6HR MAX TEMP:  43; 6HR PCP:  0.01;

OLATHE EXE     CLOUDY    38  34  85 NW20G30   29.81R WCI  28
6HR MIN TEMP:  37; 6HR MAX TEMP:  44; 6HR PCP:  0.01;

SALINA         CLOUDY    45  31  58 NW22G35   30.01R
6HR MIN TEMP:  45; 6HR MAX TEMP:  46;

TOPEKA BILLARD CLOUDY    40  32  73 NW24G37   29.90R WCI  29
6HR MIN TEMP:  39; 6HR MAX TEMP:  44;

TOPEKA FORBES  CLOUDY    41  31  67 N23G31    29.89R
6HR MIN TEMP:  40; 6HR MAX TEMP:  45;

$$



USA.gov is the U.S. government's official web portal to all federal, state and local government web resources and services.